Regional Weather Roundup
Issued by NWS Little Rock, AR

Home | Current Version | Previous Version | Graphics & Text | Print | Product List | Glossary On
Versions: 1 2 3 4 5 6 7 8 9 10 11 12 13 14 15 16 17 18 19 20 21 22 23 24 25 26 27 28 29 30 31 32
000
ASUS44 KLZK 210705
RWRLZK

WEATHER ROUNDUP FOR ARKANSAS
NATIONAL WEATHER SERVICE LITTLE ROCK AR
100 AM CST TUE FEB 21 2017

NOTE: "FAIR" INDICATES FEW OR NO CLOUDS BELOW 12,000 FEET WITH NO
SIGNIFICANT WEATHER AND/OR OBSTRUCTIONS TO VISIBILITY.

ARZ001-003-010-029-210800-
NORTHWEST ARKANSAS

CITY           SKY/WX    TMP DP  RH WIND       PRES   REMARKS
FAYETTEVILLE   CLOUDY    55  55 100 CALM      29.92S
FORT SMITH     CLOUDY    58  56  93 CALM      29.92R FOG
HARRISON       LGT RAIN  57  57 100 N3        29.92F FOG
BENTONVILLE    CLOUDY    55  54  94 CALM      29.93R
ROGERS         CLOUDY    56  54  93 CALM      29.93R
SILOAM SPGS    CLOUDY    55  52  88 E5        29.92S
HIGHFILL       CLOUDY    55  55 100 CALM      29.92R
$$

ARZ004-005-016-210800-
NORTH CENTRAL ARKANSAS

CITY           SKY/WX    TMP DP  RH WIND       PRES   REMARKS
BATESVILLE     CLOUDY    61  59  94 CALM      29.89F
FLIPPIN        CLOUDY    59  54  82 CALM      29.91R
MTN HOME       LGT RAIN  57  56  96 CALM      29.91F
$$

ARZ040-041-210800-
WEST CENTRAL ARKANSAS

CITY           SKY/WX    TMP DP  RH WIND       PRES   REMARKS
MENA           CLOUDY    59  57  94 CALM      29.89F
MOUNT IDA      CLOUDY    58  56  93 VRB3      29.81F
$$

ARZ009-017-025-026-028-210800-
NORTHEAST ARKANSAS

CITY           SKY/WX    TMP DP  RH WIND       PRES   REMARKS
CORNING        LGT RAIN  59  57  94 W3        29.93S
JONESBORO      CLOUDY    60  58  92 NW3       29.89F
NEWPORT        RAIN      61  60  97 N6        29.90R
WALNUT RIDGE   CLOUDY    61  54  77 CALM      29.91F
BLYTHEVILLE    CLOUDY    66  51  58 SE9       29.89F
$$

ARZ022-023-033-042-044-210800-
CENTRAL ARKANSAS

CITY           SKY/WX    TMP DP  RH WIND       PRES   REMARKS
LITTLE ROCK    LGT RAIN  58  58 100 N6        29.90S FOG
N LITTLE ROCK    N/A     58  57  95 CALM      29.89F
JACKSONVILLE   LGT RAIN  60  60 100 W5        29.90R
SEARCY         LGT RAIN  61  61 100 NW6       29.89F
HOT SPRINGS    LGT RAIN  59  59 100 VRB3      29.89F
RUSSELLVILLE   LGT RAIN  59  58  96 SW9       29.92S FOG
$$

ARZ036-210800-
EAST ARKANSAS

CITY           SKY/WX    TMP DP  RH WIND       PRES   REMARKS
WEST MEMPHIS   LGT RAIN  66  54  65 S10       29.88R
$$

ARZ050-053-066-070-073-210800-
SOUTHWEST ARKANSAS

CITY           SKY/WX    TMP DP  RH WIND       PRES   REMARKS
ARKADELPHIA    LGT RAIN  59  58  96 W7        29.90S
CAMDEN         LGT RAIN  57  55  94 SW8       29.92R
TEXARKANA      CLOUDY    57  57 100 SW5       29.92S FOG
EL DORADO      CLOUDY    58  58 100 W5        29.90F
DE QUEEN       FOG       56  56 100 SW3       29.91S VSB 1/2
$$

ARZ056-057-069-210800-
SOUTHEAST ARKANSAS

CITY           SKY/WX    TMP DP  RH WIND       PRES   REMARKS
PINE BLUFF     RAIN      59  58  96 NE6       29.89F
STUTTGART      CLOUDY    61  54  77 W17       29.91R
MONTICELLO     LGT RAIN  59  57  93 NE5       29.90F

$$






USA.gov is the U.S. government's official web portal to all federal, state and local government web resources and services.